Year,Month,Day,Hour,Minute,Value (Times are PST for temperature in C)
2007,06,03,00,00,15.30
2007,06,03,00,01,15.30
2007,06,03,00,02,15.30
2007,06,03,00,03,15.30
2007,06,03,00,04,15.30
2007,06,03,00,05,15.30
2007,06,03,00,06,15.30
2007,06,03,00,07,15.20
2007,06,03,00,08,15.20
2007,06,03,00,09,15.20
2007,06,03,00,10,15.20
2007,06,03,00,11,15.20
2007,06,03,00,12,15.10
2007,06,03,00,13,15.10
2007,06,03,00,14,15.10
2007,06,03,00,15,15.10
2007,06,03,00,16,15.10
2007,06,03,00,17,15.00
2007,06,03,00,18,15.00
2007,06,03,00,19,15.00
2007,06,03,00,20,15.00
2007,06,03,00,21,14.90
2007,06,03,00,22,14.90
2007,06,03,00,23,14.90
2007,06,03,00,24,14.90
2007,06,03,00,25,14.80
2007,06,03,00,26,14.80
2007,06,03,00,27,14.80
2007,06,03,00,28,14.80
2007,06,03,00,29,14.80
2007,06,03,00,30,14.80
2007,06,03,00,31,14.80
2007,06,03,00,32,14.80
2007,06,03,00,33,14.80
2007,06,03,00,34,14.80
2007,06,03,00,35,14.80
2007,06,03,00,36,14.70
2007,06,03,00,37,14.70
2007,06,03,00,38,14.70
2007,06,03,00,39,14.70
2007,06,03,00,40,14.70
2007,06,03,00,41,14.70
2007,06,03,00,42,14.70
2007,06,03,00,43,14.70
2007,06,03,00,44,14.60
2007,06,03,00,45,14.60
2007,06,03,00,46,14.60
2007,06,03,00,47,14.60
2007,06,03,00,48,14.60
2007,06,03,00,49,14.60
2007,06,03,00,50,14.60
2007,06,03,00,51,14.60
2007,06,03,00,52,14.50
2007,06,03,00,53,14.50
2007,06,03,00,54,14.50
2007,06,03,00,55,14.50
2007,06,03,00,56,14.50
2007,06,03,00,57,14.50
2007,06,03,00,58,14.50
2007,06,03,00,59,14.50
2007,06,03,01,00,14.50
2007,06,03,01,01,14.50
2007,06,03,01,02,14.40
2007,06,03,01,03,14.40
2007,06,03,01,04,14.40
2007,06,03,01,05,14.40
2007,06,03,01,06,14.30
2007,06,03,01,07,14.30
2007,06,03,01,08,14.30
2007,06,03,01,09,14.30
2007,06,03,01,10,14.20
2007,06,03,01,11,14.20
2007,06,03,01,12,14.20
2007,06,03,01,13,14.20
2007,06,03,01,14,14.20
2007,06,03,01,15,14.20
2007,06,03,01,16,14.20
2007,06,03,01,17,14.20
2007,06,03,01,18,14.10
2007,06,03,01,19,14.10
2007,06,03,01,20,14.00
2007,06,03,01,21,14.00
2007,06,03,01,22,14.00
2007,06,03,01,23,13.90
2007,06,03,01,24,13.90
2007,06,03,01,25,13.90
2007,06,03,01,26,13.90
2007,06,03,01,27,13.80
2007,06,03,01,28,13.80
2007,06,03,01,29,13.80
2007,06,03,01,30,13.80
2007,06,03,01,31,13.80
2007,06,03,01,32,13.70
2007,06,03,01,33,13.70
2007,06,03,01,34,13.70
2007,06,03,01,35,13.70
2007,06,03,01,36,13.70
2007,06,03,01,37,13.70
2007,06,03,01,38,13.70
2007,06,03,01,39,13.70
2007,06,03,01,40,13.70
2007,06,03,01,41,13.70
2007,06,03,01,42,13.70
2007,06,03,01,43,13.70
2007,06,03,01,44,13.80
2007,06,03,01,45,13.80
2007,06,03,01,46,13.80
2007,06,03,01,47,13.80
2007,06,03,01,48,13.80
2007,06,03,01,49,13.80
2007,06,03,01,50,13.80
2007,06,03,01,51,13.80
2007,06,03,01,52,13.70
2007,06,03,01,53,13.70
2007,06,03,01,54,13.70
2007,06,03,01,55,13.70
2007,06,03,01,56,13.70
2007,06,03,01,57,13.70
2007,06,03,01,58,13.70
2007,06,03,01,59,13.70
2007,06,03,02,00,13.70
2007,06,03,02,01,13.60
2007,06,03,02,02,13.60
2007,06,03,02,03,13.60
2007,06,03,02,04,13.60
2007,06,03,02,05,13.60
2007,06,03,02,06,13.50
2007,06,03,02,07,13.50
2007,06,03,02,08,13.50
2007,06,03,02,09,13.50
2007,06,03,02,10,13.50
2007,06,03,02,11,13.50
2007,06,03,02,12,13.50
2007,06,03,02,13,13.50
2007,06,03,02,14,13.40
2007,06,03,02,15,13.40
2007,06,03,02,16,13.40
2007,06,03,02,17,13.40
2007,06,03,02,18,13.40
2007,06,03,02,19,13.40
2007,06,03,02,20,13.40
2007,06,03,02,21,13.50
2007,06,03,02,22,13.50
2007,06,03,02,23,13.50
2007,06,03,02,24,13.50
2007,06,03,02,25,13.50
2007,06,03,02,26,13.50
2007,06,03,02,27,13.50
2007,06,03,02,28,13.40
2007,06,03,02,29,13.40
2007,06,03,02,30,13.40
2007,06,03,02,31,13.40
2007,06,03,02,32,13.40
2007,06,03,02,33,13.40
2007,06,03,02,34,13.30
2007,06,03,02,35,13.30
2007,06,03,02,36,13.40
2007,06,03,02,37,13.40
2007,06,03,02,38,13.40
2007,06,03,02,39,13.40
2007,06,03,02,40,13.40
2007,06,03,02,41,13.40
2007,06,03,02,42,13.40
2007,06,03,02,43,13.40
2007,06,03,02,44,13.40
2007,06,03,02,45,13.40
2007,06,03,02,46,13.40
2007,06,03,02,47,13.40
2007,06,03,02,48,13.40
2007,06,03,02,49,13.30
2007,06,03,02,50,13.30
2007,06,03,02,51,13.30
2007,06,03,02,52,13.30
2007,06,03,02,53,13.30
2007,06,03,02,54,13.30
2007,06,03,02,55,13.30
2007,06,03,02,56,13.30
2007,06,03,02,57,13.30
2007,06,03,02,58,13.30
2007,06,03,02,59,13.30
2007,06,03,03,00,13.30
2007,06,03,03,01,13.30
2007,06,03,03,02,13.30
2007,06,03,03,03,13.30
2007,06,03,03,04,13.30
2007,06,03,03,05,13.30
2007,06,03,03,06,13.20
2007,06,03,03,07,13.20
2007,06,03,03,08,13.20
2007,06,03,03,09,13.20
2007,06,03,03,10,13.20
2007,06,03,03,11,13.20
2007,06,03,03,12,13.20
2007,06,03,03,13,13.20
2007,06,03,03,14,13.20
2007,06,03,03,15,13.20
2007,06,03,03,16,13.20
2007,06,03,03,17,13.30
2007,06,03,03,18,13.30
2007,06,03,03,19,13.30
2007,06,03,03,20,13.30
2007,06,03,03,21,13.30
2007,06,03,03,22,13.30
2007,06,03,03,23,13.30
2007,06,03,03,24,13.30
2007,06,03,03,25,13.30
2007,06,03,03,26,13.30
2007,06,03,03,27,13.30
2007,06,03,03,28,13.30
2007,06,03,03,29,13.30
2007,06,03,03,30,13.30
2007,06,03,03,31,13.30
2007,06,03,03,32,13.30
2007,06,03,03,33,13.30
2007,06,03,03,34,13.30
2007,06,03,03,35,13.30
2007,06,03,03,36,13.30
2007,06,03,03,37,13.30
2007,06,03,03,38,13.30
2007,06,03,03,39,13.30
2007,06,03,03,40,13.40
2007,06,03,03,41,13.40
2007,06,03,03,42,13.50
2007,06,03,03,43,13.50
2007,06,03,03,44,13.50
2007,06,03,03,45,13.60
2007,06,03,03,46,13.60
2007,06,03,03,47,13.60
2007,06,03,03,48,13.60
2007,06,03,03,49,13.60
2007,06,03,03,50,13.60
2007,06,03,03,51,13.60
2007,06,03,03,52,13.60
2007,06,03,03,53,13.60
2007,06,03,03,54,13.60
2007,06,03,03,55,13.60
2007,06,03,03,56,13.60
2007,06,03,03,57,13.60
2007,06,03,03,58,13.60
2007,06,03,03,59,13.60
2007,06,03,04,00,13.60
2007,06,03,04,01,13.60
2007,06,03,04,02,13.60
2007,06,03,04,03,13.60
2007,06,03,04,04,13.60
2007,06,03,04,05,13.60
2007,06,03,04,06,13.60
2007,06,03,04,07,13.60
2007,06,03,04,08,13.50
2007,06,03,04,09,13.50
2007,06,03,04,10,13.50
2007,06,03,04,11,13.50
2007,06,03,04,12,13.50
2007,06,03,04,13,13.50
2007,06,03,04,14,13.50
2007,06,03,04,15,13.50
2007,06,03,04,16,13.50
2007,06,03,04,17,13.50
2007,06,03,04,18,13.50
2007,06,03,04,19,13.40
2007,06,03,04,20,13.40
2007,06,03,04,21,13.40
2007,06,03,04,22,13.40
2007,06,03,04,23,13.40
2007,06,03,04,24,13.40
2007,06,03,04,25,13.30
2007,06,03,04,26,13.30
2007,06,03,04,27,13.30
2007,06,03,04,28,13.30
2007,06,03,04,29,13.30
2007,06,03,04,30,13.30
2007,06,03,04,31,13.30
2007,06,03,04,32,13.30
2007,06,03,04,33,13.30
2007,06,03,04,34,13.20
2007,06,03,04,35,13.20
2007,06,03,04,36,13.20
2007,06,03,04,37,13.20
2007,06,03,04,38,13.20
2007,06,03,04,39,13.20
2007,06,03,04,40,13.10
2007,06,03,04,41,13.10
2007,06,03,04,42,13.10
2007,06,03,04,43,13.10
2007,06,03,04,44,13.00
2007,06,03,04,45,13.00
2007,06,03,04,46,13.00
2007,06,03,04,47,13.00
2007,06,03,04,48,13.00
2007,06,03,04,49,12.90
2007,06,03,04,50,12.90
2007,06,03,04,51,12.90
2007,06,03,04,52,12.90
2007,06,03,04,53,12.80
2007,06,03,04,54,12.80
2007,06,03,04,55,12.80
2007,06,03,04,56,12.80
2007,06,03,04,57,12.70
2007,06,03,04,58,12.70
2007,06,03,04,59,12.70
2007,06,03,05,00,12.70
2007,06,03,05,01,12.70
2007,06,03,05,02,12.60
2007,06,03,05,03,12.60
2007,06,03,05,04,12.60
2007,06,03,05,05,12.50
2007,06,03,05,06,12.50
2007,06,03,05,07,12.50
2007,06,03,05,08,12.50
2007,06,03,05,09,12.40
2007,06,03,05,10,12.40
2007,06,03,05,11,12.40
2007,06,03,05,12,12.30
2007,06,03,05,13,12.30
2007,06,03,05,14,12.30
2007,06,03,05,15,12.30
2007,06,03,05,16,12.30
2007,06,03,05,17,12.20
2007,06,03,05,18,12.20
2007,06,03,05,19,12.20
2007,06,03,05,20,12.10
2007,06,03,05,21,12.00
2007,06,03,05,22,12.00
2007,06,03,05,23,12.00
2007,06,03,05,24,11.90
2007,06,03,05,25,11.90
2007,06,03,05,26,11.90
2007,06,03,05,27,11.80
2007,06,03,05,28,11.80
2007,06,03,05,29,11.80
2007,06,03,05,30,11.80
2007,06,03,05,31,11.80
2007,06,03,05,32,11.80
2007,06,03,05,33,11.80
2007,06,03,05,34,11.80
2007,06,03,05,35,11.80
2007,06,03,05,36,11.80
2007,06,03,05,37,11.80
2007,06,03,05,38,11.80
2007,06,03,05,39,11.80
2007,06,03,05,40,11.80
2007,06,03,05,41,11.80
2007,06,03,05,42,11.80
2007,06,03,05,43,11.80
2007,06,03,05,44,11.80
2007,06,03,05,45,11.80
2007,06,03,05,46,11.80
2007,06,03,05,47,11.80
2007,06,03,05,48,11.80
2007,06,03,05,49,11.80
2007,06,03,05,50,11.80
2007,06,03,05,51,11.80
2007,06,03,05,52,11.80
2007,06,03,05,53,11.90
2007,06,03,05,54,11.90
2007,06,03,05,55,12.00
2007,06,03,05,56,12.00
2007,06,03,05,57,12.00
2007,06,03,05,58,12.00
2007,06,03,05,59,12.00
2007,06,03,06,00,12.00
2007,06,03,06,01,12.00
2007,06,03,06,02,12.00
2007,06,03,06,03,12.00
2007,06,03,06,04,12.00
2007,06,03,06,05,12.00
2007,06,03,06,06,12.00
2007,06,03,06,07,12.10
2007,06,03,06,08,12.10
2007,06,03,06,09,12.10
2007,06,03,06,10,12.10
2007,06,03,06,11,12.10
2007,06,03,06,12,12.20
2007,06,03,06,13,12.20
2007,06,03,06,14,12.20
2007,06,03,06,15,12.30
2007,06,03,06,16,12.30
2007,06,03,06,17,12.30
2007,06,03,06,18,12.30
2007,06,03,06,19,12.30
2007,06,03,06,20,12.30
2007,06,03,06,21,12.30
2007,06,03,06,22,12.40
2007,06,03,06,23,12.40
2007,06,03,06,24,12.40
2007,06,03,06,25,12.40
2007,06,03,06,26,12.50
2007,06,03,06,27,12.50
2007,06,03,06,28,12.50
2007,06,03,06,29,12.50
2007,06,03,06,30,12.60
2007,06,03,06,31,12.60
2007,06,03,06,32,12.60
2007,06,03,06,33,12.70
2007,06,03,06,34,12.70
2007,06,03,06,35,12.70
2007,06,03,06,36,12.80
2007,06,03,06,37,12.80
2007,06,03,06,38,12.80
2007,06,03,06,39,12.90
2007,06,03,06,40,12.90
2007,06,03,06,41,13.00
2007,06,03,06,42,13.10
2007,06,03,06,43,13.10
2007,06,03,06,44,13.10
2007,06,03,06,45,13.30
2007,06,03,06,46,13.30
2007,06,03,06,47,13.30
2007,06,03,06,48,13.40
2007,06,03,06,49,13.50
2007,06,03,06,50,13.60
2007,06,03,06,51,13.60
2007,06,03,06,52,13.70
2007,06,03,06,53,13.70
2007,06,03,06,54,13.80
2007,06,03,06,55,13.90
2007,06,03,06,56,14.00
2007,06,03,06,57,14.00
2007,06,03,06,58,14.10
2007,06,03,06,59,14.20
2007,06,03,07,00,14.20
2007,06,03,07,01,14.20
2007,06,03,07,02,14.20
2007,06,03,07,03,14.20
2007,06,03,07,04,14.30
2007,06,03,07,05,14.40
2007,06,03,07,06,14.50
2007,06,03,07,07,14.60
2007,06,03,07,08,14.70
2007,06,03,07,09,14.80
2007,06,03,07,10,14.90
2007,06,03,07,11,14.90
2007,06,03,07,12,15.10
2007,06,03,07,13,15.20
2007,06,03,07,14,15.30
2007,06,03,07,15,15.30
2007,06,03,07,16,15.30
2007,06,03,07,17,15.40
2007,06,03,07,18,15.50
2007,06,03,07,19,15.60
2007,06,03,07,20,15.60
2007,06,03,07,21,15.70
2007,06,03,07,22,15.80
2007,06,03,07,23,15.90
2007,06,03,07,24,16.10
2007,06,03,07,25,16.20
2007,06,03,07,26,16.30
2007,06,03,07,27,16.30
2007,06,03,07,28,16.30
2007,06,03,07,29,16.30
2007,06,03,07,30,16.30
2007,06,03,07,31,16.30
2007,06,03,07,32,16.20
2007,06,03,07,33,16.20
2007,06,03,07,34,16.20
2007,06,03,07,35,16.20
2007,06,03,07,36,16.30
2007,06,03,07,37,16.40
2007,06,03,07,38,16.40
2007,06,03,07,39,16.50
2007,06,03,07,40,16.70
2007,06,03,07,41,16.70
2007,06,03,07,42,16.90
2007,06,03,07,43,17.00
2007,06,03,07,44,17.00
2007,06,03,07,45,17.00
2007,06,03,07,46,17.10
2007,06,03,07,47,17.10
2007,06,03,07,48,17.10
2007,06,03,07,49,17.20
2007,06,03,07,50,17.20
2007,06,03,07,51,17.20
2007,06,03,07,52,17.20
2007,06,03,07,53,17.20
2007,06,03,07,54,17.20
2007,06,03,07,55,17.20
2007,06,03,07,56,17.20
2007,06,03,07,57,17.20
2007,06,03,07,58,17.20
2007,06,03,07,59,17.20
2007,06,03,08,00,17.20
2007,06,03,08,01,17.30
2007,06,03,08,02,17.30
2007,06,03,08,03,17.30
2007,06,03,08,04,17.40
2007,06,03,08,05,17.50
2007,06,03,08,06,17.50
2007,06,03,08,07,17.50
2007,06,03,08,08,17.40
2007,06,03,08,09,17.30
2007,06,03,08,10,17.30
2007,06,03,08,11,17.30
2007,06,03,08,12,17.30
2007,06,03,08,13,17.30
2007,06,03,08,14,17.30
2007,06,03,08,15,17.10
2007,06,03,08,16,17.00
2007,06,03,08,17,16.90
2007,06,03,08,18,16.90
2007,06,03,08,19,16.80
2007,06,03,08,20,16.70
2007,06,03,08,21,16.70
2007,06,03,08,22,16.60
2007,06,03,08,23,16.60
2007,06,03,08,24,16.60
2007,06,03,08,25,16.50
2007,06,03,08,26,16.40
2007,06,03,08,27,16.40
2007,06,03,08,28,16.40
2007,06,03,08,29,16.40
2007,06,03,08,30,16.40
2007,06,03,08,31,16.40
2007,06,03,08,32,16.40
2007,06,03,08,33,16.60
2007,06,03,08,34,16.60
2007,06,03,08,35,16.60
2007,06,03,08,36,16.70
2007,06,03,08,37,16.70
2007,06,03,08,38,16.70
2007,06,03,08,39,16.70
2007,06,03,08,40,16.70
2007,06,03,08,41,16.70
2007,06,03,08,42,16.70
2007,06,03,08,43,16.70
2007,06,03,08,44,16.60
2007,06,03,08,45,16.60
2007,06,03,08,46,16.60
2007,06,03,08,47,16.50
2007,06,03,08,48,16.50
2007,06,03,08,49,16.60
2007,06,03,08,50,16.60
2007,06,03,08,51,16.70
2007,06,03,08,52,16.70
2007,06,03,08,53,16.70
2007,06,03,08,54,16.70
2007,06,03,08,55,16.80
2007,06,03,08,56,16.80
2007,06,03,08,57,16.90
2007,06,03,08,58,16.90
2007,06,03,08,59,16.90
2007,06,03,09,00,17.00
2007,06,03,09,01,17.00
2007,06,03,09,02,17.00
2007,06,03,09,03,17.00
2007,06,03,09,04,16.90
2007,06,03,09,05,16.90
2007,06,03,09,06,16.80
2007,06,03,09,07,16.80
2007,06,03,09,08,16.80
2007,06,03,09,09,16.80
2007,06,03,09,10,16.70
2007,06,03,09,11,16.70
2007,06,03,09,12,16.70
2007,06,03,09,13,16.70
2007,06,03,09,14,16.80
2007,06,03,09,15,16.90
2007,06,03,09,16,17.00
2007,06,03,09,17,17.10
2007,06,03,09,18,17.20
2007,06,03,09,19,17.30
2007,06,03,09,20,17.40
2007,06,03,09,21,17.50
2007,06,03,09,22,17.50
2007,06,03,09,23,17.70
2007,06,03,09,24,17.70
2007,06,03,09,25,17.90
2007,06,03,09,26,17.90
2007,06,03,09,27,17.90
2007,06,03,09,28,17.90
2007,06,03,09,29,17.90
2007,06,03,09,30,18.20
2007,06,03,09,31,18.20
2007,06,03,09,32,18.20
2007,06,03,09,33,18.20
2007,06,03,09,34,18.30
2007,06,03,09,35,18.30
2007,06,03,09,36,18.30
2007,06,03,09,37,18.30
2007,06,03,09,38,18.30
2007,06,03,09,39,18.40
2007,06,03,09,40,18.50
2007,06,03,09,41,18.60
2007,06,03,09,42,18.60
2007,06,03,09,43,18.70
2007,06,03,09,44,18.80
2007,06,03,09,45,18.90
2007,06,03,09,46,18.90
2007,06,03,09,47,19.00
2007,06,03,09,48,19.10
2007,06,03,09,49,19.10
2007,06,03,09,50,19.20
2007,06,03,09,51,19.30
2007,06,03,09,52,19.30
2007,06,03,09,53,19.40
2007,06,03,09,54,19.50
2007,06,03,09,55,19.50
2007,06,03,09,56,19.50
2007,06,03,09,57,19.50
2007,06,03,09,58,19.60
2007,06,03,09,59,19.60
2007,06,03,10,00,19.60
2007,06,03,10,01,19.70
2007,06,03,10,02,19.70
2007,06,03,10,03,19.80
2007,06,03,10,04,19.90
2007,06,03,10,05,19.90
2007,06,03,10,06,20.00
2007,06,03,10,07,20.10
2007,06,03,10,08,20.20
2007,06,03,10,09,20.20
2007,06,03,10,10,20.20
2007,06,03,10,11,20.20
2007,06,03,10,12,20.20
2007,06,03,10,13,20.20
2007,06,03,10,14,20.20
2007,06,03,10,15,20.20
2007,06,03,10,16,20.20
2007,06,03,10,17,20.10
2007,06,03,10,18,20.00
2007,06,03,10,19,19.90
2007,06,03,10,20,19.90
2007,06,03,10,21,19.90
2007,06,03,10,22,19.90
2007,06,03,10,23,19.90
2007,06,03,10,24,19.90
2007,06,03,10,25,19.90
2007,06,03,10,26,19.90
2007,06,03,10,27,19.90
2007,06,03,10,28,19.90
2007,06,03,10,29,19.90
2007,06,03,10,30,19.90
2007,06,03,10,31,19.90
2007,06,03,10,32,19.90
2007,06,03,10,33,19.90
2007,06,03,10,34,19.70
2007,06,03,10,35,19.60
2007,06,03,10,36,19.50
2007,06,03,10,37,19.50
2007,06,03,10,38,19.40
2007,06,03,10,39,19.50
2007,06,03,10,40,19.50
2007,06,03,10,41,19.60
2007,06,03,10,42,19.60
2007,06,03,10,43,19.60
2007,06,03,10,44,19.70
2007,06,03,10,45,19.70
2007,06,03,10,46,19.80
2007,06,03,10,47,19.80
2007,06,03,10,48,19.70
2007,06,03,10,49,19.70
2007,06,03,10,50,19.70
2007,06,03,10,51,19.80
2007,06,03,10,52,19.70
2007,06,03,10,53,19.70
2007,06,03,10,54,19.70
2007,06,03,10,55,19.70
2007,06,03,10,56,19.70
2007,06,03,10,57,19.70
2007,06,03,10,58,19.60
2007,06,03,10,59,19.60
2007,06,03,11,00,19.40
2007,06,03,11,01,19.40
2007,06,03,11,02,19.30
2007,06,03,11,03,19.20
2007,06,03,11,04,19.20
2007,06,03,11,05,19.10
2007,06,03,11,06,19.20
2007,06,03,11,07,19.30
2007,06,03,11,08,19.40
2007,06,03,11,09,19.40
2007,06,03,11,10,19.40
2007,06,03,11,11,19.40
2007,06,03,11,12,19.40
2007,06,03,11,13,19.30
2007,06,03,11,14,19.30
2007,06,03,11,15,19.20
2007,06,03,11,16,19.20
2007,06,03,11,17,19.10
2007,06,03,11,18,19.10
2007,06,03,11,19,19.20
2007,06,03,11,20,19.30
2007,06,03,11,21,19.40
2007,06,03,11,22,19.40
2007,06,03,11,23,19.40
2007,06,03,11,24,19.40
2007,06,03,11,25,19.50
2007,06,03,11,26,19.50
2007,06,03,11,27,19.50
2007,06,03,11,28,19.50
2007,06,03,11,29,19.50
2007,06,03,11,30,19.60
2007,06,03,11,31,19.60
2007,06,03,11,32,19.70
2007,06,03,11,33,19.70
2007,06,03,11,34,19.80
2007,06,03,11,35,19.90
2007,06,03,11,36,20.00
2007,06,03,11,37,20.10
2007,06,03,11,38,20.20
2007,06,03,11,39,20.20
2007,06,03,11,40,20.30
2007,06,03,11,41,20.30
2007,06,03,11,42,20.30
2007,06,03,11,43,20.30
2007,06,03,11,44,20.30
2007,06,03,11,45,20.40
2007,06,03,11,46,20.40
2007,06,03,11,47,20.40
2007,06,03,11,48,20.50
2007,06,03,11,49,20.50
2007,06,03,11,50,20.50
2007,06,03,11,51,20.60
2007,06,03,11,52,20.60
2007,06,03,11,53,20.60
2007,06,03,11,54,20.60
2007,06,03,11,55,20.50
2007,06,03,11,56,20.50
2007,06,03,11,57,20.50
2007,06,03,11,58,20.50
2007,06,03,11,59,20.50
2007,06,03,12,00,20.50
2007,06,03,12,01,20.50
2007,06,03,12,02,20.60
2007,06,03,12,03,20.60
2007,06,03,12,04,20.60
2007,06,03,12,05,20.60
2007,06,03,12,06,20.60
2007,06,03,12,07,20.70
2007,06,03,12,08,20.80
2007,06,03,12,09,20.80
2007,06,03,12,10,20.90
2007,06,03,12,11,20.90
2007,06,03,12,12,21.00
2007,06,03,12,13,21.10
2007,06,03,12,14,21.20
2007,06,03,12,15,21.30
2007,06,03,12,16,21.30
2007,06,03,12,17,21.40
2007,06,03,12,18,21.50
2007,06,03,12,19,21.60
2007,06,03,12,20,21.60
2007,06,03,12,21,21.60
2007,06,03,12,22,21.60
2007,06,03,12,23,21.60
2007,06,03,12,24,21.70
2007,06,03,12,25,21.70
2007,06,03,12,26,21.70
2007,06,03,12,27,21.80
2007,06,03,12,28,21.80
2007,06,03,12,29,22.00
2007,06,03,12,30,22.10
2007,06,03,12,31,22.20
2007,06,03,12,32,22.20
2007,06,03,12,33,22.10
2007,06,03,12,34,21.70
2007,06,03,12,35,21.40
2007,06,03,12,36,21.20
2007,06,03,12,37,21.10
2007,06,03,12,38,21.10
2007,06,03,12,39,21.10
2007,06,03,12,40,21.10
2007,06,03,12,41,21.10
2007,06,03,12,42,21.10
2007,06,03,12,43,21.10
2007,06,03,12,44,21.10
2007,06,03,12,45,21.30
2007,06,03,12,46,21.40
2007,06,03,12,47,21.40
2007,06,03,12,48,21.40
2007,06,03,12,49,21.40
2007,06,03,12,50,21.40
2007,06,03,12,51,21.40
2007,06,03,12,52,21.40
2007,06,03,12,53,21.30
2007,06,03,12,54,21.30
2007,06,03,12,55,21.40
2007,06,03,12,56,21.50
2007,06,03,12,57,21.60
2007,06,03,12,58,21.60
2007,06,03,12,59,21.80
2007,06,03,13,00,22.00
2007,06,03,13,01,22.10
2007,06,03,13,02,22.30
2007,06,03,13,03,22.30
2007,06,03,13,04,22.30
2007,06,03,13,05,22.30
2007,06,03,13,06,22.50
2007,06,03,13,07,22.50
2007,06,03,13,08,22.50
2007,06,03,13,09,22.60
2007,06,03,13,10,22.60
2007,06,03,13,11,22.60
2007,06,03,13,12,22.50
2007,06,03,13,13,22.60
2007,06,03,13,14,22.60
2007,06,03,13,15,22.60
2007,06,03,13,16,22.70
2007,06,03,13,17,22.70
2007,06,03,13,18,22.70
2007,06,03,13,19,22.60
2007,06,03,13,20,22.60
2007,06,03,13,21,22.50
2007,06,03,13,22,22.50
2007,06,03,13,23,22.40
2007,06,03,13,24,22.40
2007,06,03,13,25,22.50
2007,06,03,13,26,22.60
2007,06,03,13,27,22.70
2007,06,03,13,28,22.70
2007,06,03,13,29,22.60
2007,06,03,13,30,22.60
2007,06,03,13,31,22.50
2007,06,03,13,32,22.40
2007,06,03,13,33,22.30
2007,06,03,13,34,22.30
2007,06,03,13,35,22.30
2007,06,03,13,36,22.30
2007,06,03,13,37,22.20
2007,06,03,13,38,22.20
2007,06,03,13,39,22.30
2007,06,03,13,40,22.40
2007,06,03,13,41,22.30
2007,06,03,13,42,22.30
2007,06,03,13,43,22.30
2007,06,03,13,44,22.40
2007,06,03,13,45,22.30
2007,06,03,13,46,22.20
2007,06,03,13,47,22.10
2007,06,03,13,48,22.10
2007,06,03,13,49,22.10
2007,06,03,13,50,22.10
2007,06,03,13,51,22.10
2007,06,03,13,52,22.00
2007,06,03,13,53,22.00
2007,06,03,13,54,22.00
2007,06,03,13,55,22.00
2007,06,03,13,56,22.00
2007,06,03,13,57,21.90
2007,06,03,13,58,21.80
2007,06,03,13,59,21.80
2007,06,03,14,00,21.70
2007,06,03,14,01,21.80
2007,06,03,14,02,21.80
2007,06,03,14,03,21.70
2007,06,03,14,04,21.70
2007,06,03,14,05,21.70
2007,06,03,14,06,21.80
2007,06,03,14,07,21.90
2007,06,03,14,08,21.90
2007,06,03,14,09,22.00
2007,06,03,14,10,22.00
2007,06,03,14,11,22.10
2007,06,03,14,12,22.00
2007,06,03,14,13,22.00
2007,06,03,14,14,22.00
2007,06,03,14,15,22.00
2007,06,03,14,16,22.00
2007,06,03,14,17,22.10
2007,06,03,14,18,22.20
2007,06,03,14,19,22.30
2007,06,03,14,20,22.30
2007,06,03,14,21,22.30
2007,06,03,14,22,22.30
2007,06,03,14,23,22.30
2007,06,03,14,24,22.30
2007,06,03,14,25,22.30
2007,06,03,14,26,22.30
2007,06,03,14,27,22.40
2007,06,03,14,28,22.40
2007,06,03,14,29,22.40
2007,06,03,14,30,22.50
2007,06,03,14,31,22.60
2007,06,03,14,32,22.60
2007,06,03,14,33,22.60
2007,06,03,14,34,22.70
2007,06,03,14,35,22.70
2007,06,03,14,36,22.70
2007,06,03,14,37,22.80
2007,06,03,14,38,22.80
2007,06,03,14,39,22.80
2007,06,03,14,40,22.90
2007,06,03,14,41,22.90
2007,06,03,14,42,22.90
2007,06,03,14,43,22.90
2007,06,03,14,44,22.90
2007,06,03,14,45,22.80
2007,06,03,14,46,22.70
2007,06,03,14,47,22.60
2007,06,03,14,48,22.50
2007,06,03,14,49,22.50
2007,06,03,14,50,22.50
2007,06,03,14,51,22.50
2007,06,03,14,52,22.50
2007,06,03,14,53,22.50
2007,06,03,14,54,22.50
2007,06,03,14,55,22.40
2007,06,03,14,56,22.40
2007,06,03,14,57,22.40
2007,06,03,14,58,22.40
2007,06,03,14,59,22.40
2007,06,03,15,00,22.40
2007,06,03,15,01,22.40
2007,06,03,15,02,22.50
2007,06,03,15,03,22.50
2007,06,03,15,04,22.50
2007,06,03,15,05,22.60
2007,06,03,15,06,22.70
2007,06,03,15,07,22.70
2007,06,03,15,08,22.70
2007,06,03,15,09,22.80
2007,06,03,15,10,22.80
2007,06,03,15,11,22.80
2007,06,03,15,12,22.90
2007,06,03,15,13,23.00
2007,06,03,15,14,23.10
2007,06,03,15,15,23.30
2007,06,03,15,16,23.30
2007,06,03,15,17,23.30
2007,06,03,15,18,23.30
2007,06,03,15,19,23.30
2007,06,03,15,20,23.30
2007,06,03,15,21,23.40
2007,06,03,15,22,23.40
2007,06,03,15,23,23.50
2007,06,03,15,24,23.60
2007,06,03,15,25,23.70
2007,06,03,15,26,23.70
2007,06,03,15,27,23.70
2007,06,03,15,28,23.70
2007,06,03,15,29,23.60
2007,06,03,15,30,23.50
2007,06,03,15,31,23.40
2007,06,03,15,32,23.40
2007,06,03,15,33,23.30
2007,06,03,15,34,23.30
2007,06,03,15,35,23.20
2007,06,03,15,36,23.10
2007,06,03,15,37,23.10
2007,06,03,15,38,23.10
2007,06,03,15,39,23.20
2007,06,03,15,40,23.20
2007,06,03,15,41,23.20
2007,06,03,15,42,23.20
2007,06,03,15,43,23.20
2007,06,03,15,44,23.20
2007,06,03,15,45,23.10
2007,06,03,15,46,23.10
2007,06,03,15,47,23.00
2007,06,03,15,48,22.90
2007,06,03,15,49,22.90
2007,06,03,15,50,22.90
2007,06,03,15,51,22.90
2007,06,03,15,52,22.90
2007,06,03,15,53,22.90
2007,06,03,15,54,22.90
2007,06,03,15,55,22.90
2007,06,03,15,56,22.80
2007,06,03,15,57,22.70
2007,06,03,15,58,22.60
2007,06,03,15,59,22.60
2007,06,03,16,00,22.60
2007,06,03,16,01,22.50
2007,06,03,16,02,22.50
2007,06,03,16,03,22.50
2007,06,03,16,04,22.50
2007,06,03,16,05,22.50
2007,06,03,16,06,22.50
2007,06,03,16,07,22.60
2007,06,03,16,08,22.60
2007,06,03,16,09,22.60
2007,06,03,16,10,22.60
2007,06,03,16,11,22.50
2007,06,03,16,12,22.50
2007,06,03,16,13,22.50
2007,06,03,16,14,22.50
2007,06,03,16,15,22.40
2007,06,03,16,16,22.40
2007,06,03,16,17,22.40
2007,06,03,16,18,22.30
2007,06,03,16,19,22.10
2007,06,03,16,20,22.10
2007,06,03,16,21,21.80
2007,06,03,16,22,21.70
2007,06,03,16,23,21.70
2007,06,03,16,24,21.50
2007,06,03,16,25,21.40
2007,06,03,16,26,21.30
2007,06,03,16,27,21.30
2007,06,03,16,28,21.30
2007,06,03,16,29,21.30
2007,06,03,16,30,21.30
2007,06,03,16,31,21.30
2007,06,03,16,32,21.30
2007,06,03,16,33,21.30
2007,06,03,16,34,21.30
2007,06,03,16,35,21.30
2007,06,03,16,36,21.20
2007,06,03,16,37,21.20
2007,06,03,16,38,21.10
2007,06,03,16,39,21.10
2007,06,03,16,40,21.10
2007,06,03,16,41,21.10
2007,06,03,16,42,21.10
2007,06,03,16,43,21.00
2007,06,03,16,44,21.00
2007,06,03,16,45,21.00
2007,06,03,16,46,21.00
2007,06,03,16,47,21.00
2007,06,03,16,48,21.00
2007,06,03,16,49,21.00
2007,06,03,16,50,21.00
2007,06,03,16,51,21.10
2007,06,03,16,52,21.10
2007,06,03,16,53,21.10
2007,06,03,16,54,21.10
2007,06,03,16,55,21.10
2007,06,03,16,56,21.00
2007,06,03,16,57,21.00
2007,06,03,16,58,21.00
2007,06,03,16,59,21.00
2007,06,03,17,00,21.00
2007,06,03,17,01,21.00
2007,06,03,17,02,20.90
2007,06,03,17,03,20.90
2007,06,03,17,04,20.90
2007,06,03,17,05,20.90
2007,06,03,17,06,20.90
2007,06,03,17,07,20.80
2007,06,03,17,08,20.70
2007,06,03,17,09,20.60
2007,06,03,17,10,20.60
2007,06,03,17,11,20.60
2007,06,03,17,12,20.50
2007,06,03,17,13,20.50
2007,06,03,17,14,20.40
2007,06,03,17,15,20.40
2007,06,03,17,16,20.40
2007,06,03,17,17,20.40
2007,06,03,17,18,20.40
2007,06,03,17,19,20.40